Starlink 32527

operational
NORAD ID: 62319 Int'l Des: 2024-239 Owner: SPXS Country: US Constellation: starlink
LEOCIRCULAR

关于 Starlink 32527

正在加载描述...

实时位置

正在加载3D地球...

即将过境

高度历史

Altitude vs Time

uPlot chart will show altitude changes over time

两行轨道根数

1 62319U 24239U 25306.48894242 .00026915 00000-0 91702-3 0 9993
2 62319 53.1622 51.6326 0001802 88.9695 271.1512 15.30219722 50096
Epoch: Nov 2, 2025 • Age: 30 hours

当前状态

高度 474.7 km
速度 7.63 km/s
星下点 15.19°N, 102.45°W
发射日期 Dec 13, 2024
运行时间 0.8 years
类型 internet

技术详情

分类 Payload
质量 730.00 kg
干质量 700.00 kg
总质量 730.00 kg
长度 0.30 m
直径 4.10 m
跨度 29.00 m
形状 Box + pan
制造商 SPXS
平台类型 Starlink V2M
阶段状态 In Orbit
所有者/国家 SPXS/US

大型星座

Loading constellations...